Weather History for LSGG - December, 2013

Change the Weather History Date:

Tuesday, December 10, 2013

  Actual Average Record
Temperature  
Mean Temperature 27 °F -  
Max Temperature 34 °F 39 °F 55 °F (2011)
Min Temperature 20 °F 29 °F 20 °F (2013)
Degree Days  
Heating Degree Days 38    
Moisture  
Dew Point 27 °F    
Average Humidity 96    
Maximum Humidity 100    
Minimum Humidity 83    
Precipitation  
Precipitation 0.00 in 0.10 in - ()
Sea Level Pressure  
Sea Level Pressure 30.58 in    
Wind  
Wind Speed 1 mph ()    
Max Wind Speed 4 mph    
Max Gust Speed -    
Visibility 1.2 miles    
Events Fog    
Averages and records for this station are not official NWS values.
T = Trace of Precipitation, MM = Missing Value Source: Averaged Metar Reports

Daily Weather History Graph

Daily Weather History Graph

Search for Another Location

Airport or City:

Trip Planner

Search our weather history database for the weather conditions in past years. The results will help you decide how hot, cold, wet, or windy it might be!

Date:

Astronomy

Dec. 10, 2013 Rise Set
Actual Time 8:07 AM CET 4:49 PM CET
Civil Twilight 7:32 AM CET 5:23 PM CET
Nautical Twilight 6:54 AM CET 6:01 PM CET
Astronomical Twilight 6:18 AM CET 6:38 PM CET
Moon 1:00 PM CET (12/10) 12:48 AM CET (12/10)
Length of Visible Light 9h 51m
Length of Day
8h 41m
First Quarter, 59% of the Moon is Illuminated
Dec 10
First Quarter
Dec 17
Full
Dec 25
Last Quarter
Jan 1
New
Jan 8
First Quarter

Hourly Weather History & Observations

Time (CET) Temp. Dew Point Humidity Pressure Visibility Wind Dir Wind Speed Gust Speed Precip Events Conditions
12:00 AM 26 °F 24 °F 89% 30.61 in - East 1.2 mph - -  
12:20 AM 24.8 °F 24.8 °F 100% 30.51 in - Calm Calm - N/A   Mist
12:50 AM 23.0 °F 23.0 °F 100% 30.51 in 2.8 mi WNW 2.3 mph - N/A   Mist
1:00 AM 25 °F 23 °F 89% 30.62 in 3 mi West 2.3 mph - -   Mist
1:20 AM 23.0 °F 23.0 °F 100% 30.51 in - Calm Calm - N/A   Mist
1:50 AM 23.0 °F 23.0 °F 100% 30.51 in - Calm Calm - N/A   Mist
2:00 AM 24 °F 21 °F 84% 30.63 in - West 1.2 mph - -  
2:50 AM 23.0 °F 23.0 °F 100% 30.54 in 2.5 mi Calm Calm - N/A   Mist
3:00 AM 23 °F 21 °F 87% 30.64 in - SW 1.2 mph - -  
3:20 AM 23.0 °F 21.2 °F 93% 30.54 in 2.8 mi Calm Calm - N/A   Mist
3:50 AM 23.0 °F 23.0 °F 100% 30.54 in 2.8 mi Calm Calm - N/A   Mist
4:20 AM 21.2 °F 21.2 °F 100% 30.51 in - Calm Calm - N/A   Mist
4:50 AM 23.0 °F 21.2 °F 93% 30.54 in 2.8 mi Calm Calm - N/A   Mist
5:00 AM 21 °F 18 °F 83% 30.65 in - SSW 2.3 mph - -  
5:20 AM 21.2 °F 21.2 °F 100% 30.54 in 3.1 mi Calm Calm - N/A   Mist
5:50 AM 21.2 °F 21.2 °F 100% 30.54 in - Calm Calm - N/A   Mist
6:00 AM 22 °F 20 °F 86% 30.64 in - WNW 1.2 mph - -  
6:20 AM 21.2 °F 21.2 °F 100% 30.54 in - Calm Calm - N/A   Partly Cloudy
6:50 AM 21.2 °F 21.2 °F 100% 30.54 in - NW 1.2 mph - N/A   Partly Cloudy
7:00 AM 21 °F 19 °F 90% 30.64 in 3 mi NNW 1.2 mph - -   Mist
7:20 AM 21.2 °F 21.2 °F 100% 30.54 in - Calm Calm - N/A   Partly Cloudy
7:50 AM 23.0 °F 23.0 °F 100% 30.54 in 0.1 mi Calm Calm - N/A Fog Light Freezing Fog
8:00 AM 24 °F 24 °F 100% 30.64 in - West 1.2 mph - -  
8:20 AM 26.6 °F 26.6 °F 100% 30.54 in 0.1 mi Calm Calm - N/A Fog Light Freezing Fog
8:50 AM 26.6 °F 26.6 °F 100% 30.54 in 0.1 mi Calm Calm - N/A Fog Light Freezing Fog
9:00 AM 26 °F 26 °F 98% 30.64 in - West 1.2 mph - -  
9:20 AM 26.6 °F 26.6 °F 100% 30.54 in 0.1 mi Calm Calm - N/A Fog Light Freezing Fog
9:50 AM 26.6 °F 26.6 °F 100% 30.54 in 0.1 mi Calm Calm - N/A Fog Light Freezing Fog
10:20 AM 26.6 °F 26.6 °F 100% 30.57 in 0.1 mi Calm Calm - N/A Fog Light Freezing Fog
10:50 AM 28.4 °F 28.4 °F 100% 30.57 in 0.2 mi Calm Calm - N/A Fog Light Freezing Fog
11:00 AM 29 °F 28 °F 94% 30.66 in - North 1.2 mph - -  
11:20 AM 30.2 °F 30.2 °F 100% 30.57 in 0.6 mi Variable 1.2 mph - N/A Fog Mostly Cloudy
11:50 AM 30.2 °F 30.2 °F 100% 30.57 in 1.4 mi Calm Calm - N/A Fog Mostly Cloudy
12:00 PM 30 °F 28 °F 90% 30.65 in - NNE 2.3 mph - -  
12:20 PM 30.2 °F 30.2 °F 100% 30.57 in 1.6 mi Variable 1.2 mph - N/A   Mostly Cloudy
12:50 PM 32.0 °F 32.0 °F 100% 30.57 in 1.6 mi Variable 2.3 mph - N/A   Mostly Cloudy
1:00 PM 32 °F 30 °F 88% 30.63 in 2 mi North 3.5 mph - -   Mist
1:20 PM 32.0 °F 32.0 °F 100% 30.54 in 1.7 mi Variable 1.2 mph - N/A   Mostly Cloudy
1:50 PM 32.0 °F 32.0 °F 100% 30.54 in 1.9 mi Calm Calm - N/A   Partly Cloudy
2:00 PM 34 °F 31 °F 83% 30.62 in - NE 3.5 mph - -  
2:20 PM 33.8 °F 32.0 °F 93% 30.54 in 2.2 mi Calm Calm - N/A   Partly Cloudy
2:50 PM 35.6 °F 32.0 °F 87% 30.54 in 2.5 mi Variable 2.3 mph - N/A   Partly Cloudy
3:00 PM 34 °F 31 °F 84% 30.62 in - East 3.5 mph - -  
3:20 PM 35.6 °F 32.0 °F 87% 30.54 in 2.5 mi Variable 2.3 mph - N/A   Partly Cloudy
3:50 PM 33.8 °F 32.0 °F 93% 30.54 in 2.5 mi Calm Calm - N/A   Mist
4:20 PM 33.8 °F 32.0 °F 93% 30.54 in 2.5 mi Variable 1.2 mph - N/A   Mist
4:50 PM 32.0 °F 30.2 °F 93% 30.57 in 1.7 mi Calm Calm - N/A Fog Fog
5:00 PM 31 °F 29 °F 89% 30.64 in - NNE 2.3 mph - -  
5:20 PM 30.2 °F 30.2 °F 100% 30.57 in 0.5 mi Calm Calm - N/A Fog Light Freezing Fog
5:50 PM 30.2 °F 30.2 °F 100% 30.57 in 0.1 mi Calm Calm - N/A Fog Light Freezing Fog
6:00 PM 30 °F 30 °F 98% 30.66 in - North 2.3 mph - -  
6:20 PM 30.2 °F 30.2 °F 100% 30.57 in 0.1 mi Calm Calm - N/A Fog Light Freezing Fog
6:50 PM 28.4 °F 28.4 °F 100% 30.57 in 0.1 mi Calm Calm - N/A Fog Light Freezing Fog
7:00 PM 28 °F 28 °F 100% 30.67 in 0 mi NNW 1.2 mph - - Fog Heavy Fog
7:20 PM 28.4 °F 28.4 °F 100% 30.57 in 0.1 mi Calm Calm - N/A Fog Light Freezing Fog
7:50 PM 28.4 °F 28.4 °F 100% 30.60 in 0.1 mi Calm Calm - N/A Fog Light Freezing Fog
8:00 PM 28 °F 28 °F 100% 30.68 in - North 1.2 mph - -  
8:20 PM 28.4 °F 28.4 °F 100% 30.60 in 0.1 mi Calm Calm - N/A Fog Light Freezing Fog
8:50 PM 26.6 °F 26.6 °F 100% 30.57 in 0.1 mi Calm Calm - N/A Fog Light Freezing Fog
9:00 PM 27 °F 26 °F 97% 30.68 in - NW 1.2 mph - -  
9:20 PM 26.6 °F 26.6 °F 100% 30.60 in 0.1 mi Calm Calm - N/A Fog Light Freezing Fog
9:50 PM 26.6 °F 26.6 °F 100% 30.60 in 0.1 mi Calm Calm - N/A Fog Light Freezing Fog
10:20 PM 26.6 °F 26.6 °F 100% 30.60 in 0.1 mi Calm Calm - N/A Fog Light Freezing Fog
10:50 PM 28.4 °F 28.4 °F 100% 30.60 in 0.1 mi Calm Calm - N/A Fog Light Freezing Fog
11:00 PM 28 °F 28 °F 97% 30.68 in - North 3.5 mph - -  
11:20 PM 28.4 °F 28.4 °F 100% 30.60 in 0.1 mi Calm Calm - N/A Fog Light Freezing Fog
11:50 PM 28.4 °F 28.4 °F 100% 30.60 in 0.1 mi Calm Calm - N/A Fog Light Freezing Fog